Location: Mountain Grove
(34.0887°N, 86.6172°W)
Time: 21:56:12
(UTC+00:00)

SL-8 Rocket - Pass Details

Date: 14 July 2020
Orbit: 958 x 990 km, 82.9° (Epoch: 08 August)

Event Time Altitude Azimuth Distance (km) Brightness Sun altitude
Exits shadow 04:32:33 67° 279° (W) 1,037 4.1 -31.2°
Drops below altitude 10° 04:38:38 10° 0° (N) 2,694 7.1 -31.6°
Sets 04:41:10 0° 3° (N) 3,643 7.9 -31.8°
